Date String (YYYY-MM-DD hh:mm:ss) UTC,Instrument flags,Ambient pressure (hPa),Sample flow (lpm),Bypass flow (lpm),Sample temperature (°C),Ambient temperature (°C),ASC tube jacket temperature (°C),LED temperature (°C),Box temperature (°C),Sample RH (%),Span deviation,Mass concentration (μg/m³),Mass concentration (μg/m³),Mass concentration (μg/m³)
DateTimeUTC,F1_M11,P_M11,Q1_M11,Q2_M11,T1_M11,T2_M11,T3_M11,T4_M11,T5_M11,U1_M11,ZSPAN_M11,X0_M11,X2_M11,X1_M11
2023-01-18 11:00:00,,0813.4,5.02,0.00,22.1,21.2,00.0,31.0,23.9,14.9,-001.5,0006.19,0004.19,0004.12
2023-01-18 11:01:00,,0813.3,5.00,0.00,22.2,22.3,00.0,31.0,24.1,14.8,-001.8,0006.48,0004.20,0004.13
2023-01-18 11:02:00,,0813.3,4.99,0.00,22.3,22.7,00.0,31.0,24.3,14.7,-001.4,0006.46,0004.20,0004.14
2023-01-18 11:03:00,,0813.6,5.00,0.00,22.3,22.2,00.0,31.0,24.3,14.7,-001.6,0006.40,0004.17,0004.12
2023-01-18 11:04:00,,0813.5,5.00,0.00,22.3,21.8,00.0,31.1,24.2,14.7,-001.4,0006.36,0004.15,0004.10
2023-01-18 11:05:00,,0813.4,4.99,0.00,22.3,21.4,00.0,31.1,24.1,14.7,-001.2,0006.33,0004.13,0004.08
2023-01-18 11:06:00,,0813.4,4.98,0.00,22.3,21.0,00.0,31.1,24.0,14.7,-001.4,0006.26,0004.09,0004.04
2023-01-18 11:07:00,,0813.4,4.98,0.00,22.3,20.8,00.0,31.1,24.0,14.7,-001.2,0006.21,0004.06,0004.02
2023-01-18 11:08:00,,0813.4,5.01,0.00,22.3,20.6,00.0,31.1,23.9,14.7,-001.3,0006.14,0004.02,0003.98
2023-01-18 11:09:00,,0813.4,5.00,0.00,22.2,20.5,00.0,31.1,23.9,14.7,-001.3,0006.13,0003.99,0003.95
2023-01-18 11:10:00,,0813.4,5.01,0.00,22.2,20.4,00.0,31.0,23.9,14.8,-001.2,0006.15,0003.97,0003.93
2023-01-18 11:11:00,,0813.4,5.00,0.00,22.2,20.4,00.0,31.0,23.8,14.8,-001.1,0005.44,0003.94,0003.91
2023-01-18 11:12:00,,0813.4,5.00,0.00,22.2,20.3,00.0,31.0,23.8,14.8,-001.1,0004.95,0003.92,0003.88
2023-01-18 11:13:00,,0813.5,4.98,0.00,22.1,20.2,00.0,31.0,23.8,14.9,-001.4,0004.91,0003.90,0003.87
2023-01-18 11:14:00,,0813.5,4.99,0.00,22.1,20.2,00.0,31.0,23.7,14.9,-001.2,0004.88,0003.89,0003.86
2023-01-18 11:15:00,,0813.5,5.01,0.00,22.1,20.1,00.0,31.0,23.7,14.9,-001.6,0004.88,0003.90,0003.87
2023-01-18 11:16:00,,0813.5,5.02,0.00,22.0,20.1,00.0,30.9,23.6,14.9,-001.5,0004.85,0003.90,0003.87
2023-01-18 11:17:00,,0813.5,4.99,0.00,22.0,20.1,00.0,30.9,23.6,14.9,-001.2,0004.86,0003.91,0003.88
2023-01-18 11:18:00,,0813.6,4.99,0.00,22.0,20.1,00.0,30.9,23.6,15.0,-000.1,0004.86,0003.91,0003.88
2023-01-18 11:19:00,,0813.6,4.99,0.00,22.0,20.9,00.0,30.9,23.8,15.0,0000.0,0004.86,0003.92,0003.89
2023-01-18 11:20:00,,0813.5,5.01,0.00,22.1,22.0,00.0,30.9,24.1,14.9,0000.0,0004.80,0003.92,0003.89
2023-01-18 11:21:00,,0813.5,5.01,0.00,22.2,22.7,00.0,30.9,24.3,14.8,0000.0,0004.71,0003.91,0003.89
2023-01-18 11:22:00,,0813.5,4.99,0.00,22.3,22.4,00.0,31.0,24.3,14.7,0000.0,0004.72,0003.92,0003.89
2023-01-18 11:23:00,,0813.5,5.00,0.00,22.3,21.9,00.0,31.0,24.2,14.7,0000.0,0004.69,0003.92,0003.89
2023-01-18 11:24:00,,0813.5,5.01,0.00,22.3,21.5,00.0,31.0,24.1,14.7,0000.0,0004.65,0003.91,0003.89
2023-01-18 11:25:00,,0813.5,5.00,0.00,22.3,21.2,00.0,31.0,24.0,14.7,0000.0,0004.59,0003.89,0003.88
2023-01-18 11:26:00,,0813.5,4.99,0.00,22.3,20.9,00.0,31.0,24.0,14.7,0000.0,0004.56,0003.88,0003.87
2023-01-18 11:27:00,,0813.5,5.00,0.00,22.2,20.7,00.0,31.0,23.9,14.8,0000.0,0004.53,0003.87,0003.85
2023-01-18 11:28:00,,0813.5,4.99,0.00,22.2,20.6,00.0,31.0,23.9,14.8,0000.0,0004.51,0003.85,0003.83
2023-01-18 11:29:00,,0813.5,4.99,0.00,22.2,20.4,00.0,31.0,23.8,14.8,0000.0,0004.44,0003.82,0003.80
2023-01-18 11:30:00,,0813.5,4.97,0.00,22.2,20.3,00.0,31.0,23.8,14.9,0000.0,0004.43,0003.81,0003.78
2023-01-18 11:31:00,,0813.6,5.00,0.00,22.1,20.2,00.0,31.0,23.8,14.9,0000.0,0004.38,0003.79,0003.76
2023-01-18 11:32:00,,0813.5,5.01,0.00,22.1,20.2,00.0,31.0,23.7,14.9,0000.0,0004.34,0003.76,0003.72
2023-01-18 11:33:00,,0813.5,5.01,0.00,22.1,20.1,00.0,31.0,23.7,14.9,0000.0,0004.25,0003.72,0003.68
2023-01-18 11:34:00,,0813.5,5.00,0.00,22.0,20.1,00.0,30.9,23.6,15.0,0000.0,0004.19,0003.69,0003.65
2023-01-18 11:35:00,,0813.5,5.00,0.00,22.0,20.0,00.0,30.9,23.6,15.0,0000.0,0004.13,0003.66,0003.62
2023-01-18 11:36:00,,0813.5,5.01,0.00,22.0,20.0,00.0,30.9,23.6,15.0,0000.0,0004.09,0003.64,0003.60
2023-01-18 11:37:00,,0813.6,5.01,0.00,22.0,20.0,00.0,30.9,23.6,15.0,0000.0,0004.03,0003.61,0003.58
2023-01-18 11:38:00,,0813.6,5.02,0.00,22.0,20.7,00.0,30.8,23.7,15.0,0000.0,0003.98,0003.59,0003.56
2023-01-18 11:39:00,,0813.6,5.01,0.00,22.1,21.8,00.0,30.8,24.0,15.0,0000.0,0003.90,0003.56,0003.53
2023-01-18 11:40:00,,0813.6,5.00,0.00,22.2,22.7,00.0,30.9,24.2,14.9,0000.0,0003.89,0003.55,0003.52
2023-01-18 11:41:00,,0813.5,4.97,0.00,22.3,22.4,00.0,30.9,24.3,14.8,0000.0,0003.85,0003.54,0003.52
2023-01-18 11:42:00,,0813.5,5.00,0.00,22.3,22.0,00.0,30.9,24.2,14.8,0000.0,0003.84,0003.53,0003.51
2023-01-18 11:43:00,,0813.5,5.01,0.00,22.3,21.6,00.0,31.0,24.1,14.8,0000.0,0003.82,0003.53,0003.52
2023-01-18 11:44:00,,0813.5,4.99,0.00,22.3,21.3,00.0,31.0,24.1,14.8,0000.0,0003.83,0003.53,0003.52
2023-01-18 11:45:00,,0813.6,5.00,0.00,22.2,21.0,00.0,31.0,24.0,14.8,0000.0,0003.85,0003.54,0003.53
2023-01-18 11:46:00,,0813.5,5.00,0.00,22.2,20.8,00.0,31.0,24.0,14.8,0000.0,0003.88,0003.55,0003.54
2023-01-18 11:47:00,,0813.5,5.00,0.00,22.2,20.7,00.0,31.0,23.9,14.9,-000.4,0003.90,0003.56,0003.55
2023-01-18 11:48:00,,0813.6,5.00,0.00,22.2,20.6,00.0,31.0,23.9,14.9,-002.3,0003.91,0003.57,0003.56
2023-01-18 11:49:00,,0813.6,5.01,0.00,22.2,20.5,00.0,31.0,23.9,14.9,-002.3,0003.91,0003.57,0003.56
2023-01-18 11:50:00,,0813.6,5.01,0.00,22.2,20.4,00.0,31.0,23.8,14.9,-002.1,0003.92,0003.57,0003.56
2023-01-18 11:51:00,,0813.6,5.00,0.00,22.1,20.4,00.0,31.0,23.8,14.9,-001.9,0003.95,0003.59,0003.57
2023-01-18 11:52:00,,0813.6,4.98,0.00,22.1,20.4,00.0,30.9,23.8,14.9,-001.3,0003.95,0003.59,0003.58
2023-01-18 11:53:00,,0813.6,5.00,0.00,22.1,20.3,00.0,30.9,23.8,14.9,-001.4,0003.95,0003.59,0003.58
2023-01-18 11:54:00,,0813.6,5.00,0.00,22.1,20.3,00.0,30.9,23.7,15.0,-000.5,0003.97,0003.60,0003.58
2023-01-18 11:55:00,,0813.5,4.99,0.00,22.1,20.3,00.0,30.9,23.7,15.0,0000.0,0003.97,0003.60,0003.58
2023-01-18 11:56:00,,0813.6,4.99,0.00,22.0,20.2,00.0,30.9,23.7,15.0,0000.0,0003.93,0003.58,0003.57
2023-01-18 11:57:00,,0813.6,4.99,0.00,22.0,20.3,00.0,30.9,23.7,15.0,-000.2,0003.87,0003.56,0003.55
2023-01-18 11:58:00,,0813.6,5.02,0.00,22.1,21.2,00.0,30.9,23.9,15.0,0000.0,0003.84,0003.56,0003.55
2023-01-18 11:59:00,,0813.6,4.99,0.00,22.2,22.3,00.0,30.9,24.1,14.9,0000.0,0003.81,0003.55,0003.54
